Вернуться в каталог

STARLINK-34509

АктивенСвязьVLEO
NORAD 64484·PAYLOAD·🇺🇸 United States

Запущен Jun 23, 2025 с Cape Canaveral Space Force Station

Loading…

Ближайшие Пролёты (ближайшие 24 часа)

TLE

СвежийSource: CelesTrak SupGP

Эпоха: Sep 14, 2026, 21:08 UTC

1 64484C 25133N   26257.88104167 -.00006744  00000+0 -19935-3 0  2576
2 64484  53.1584 315.7982 0001144  89.0733 350.8364 15.34376221    13

Отслеживайте STARLINK-34509 в реальном времени с AllMySat

Download on the App Store